H1 CPF 2 NER 2025 10 27 9 300 01 glonass132 H2 1401201 9132 39620 2025 10 27 0 0 0 2025 10 30 23 45 0 900 1 1 0 0 0 1 H9 10 0 60975 0.00000 0 -10096558.134 -3251134.798 -23174985.732 10 0 60975 900.00000 0 -9402146.590 -6017457.403 -22909490.078 10 0 60975 1800.00000 0 -8927520.302 -8769166.405 -22197864.809 10 0 60975 2700.00000 0 -8673269.545 -11435468.391 -21053847.279 10 0 60975 3600.00000 0 -8627473.874 -13947594.087 -19499626.993 10 0 60975 4500.00000 0 -8766321.714 -16241458.477 -17565418.290 10 0 60975 5400.00000 0 -9055249.631 -18260135.275 -15288872.804 10 0 60975 6300.00000 0 -9450552.832 -19956041.743 -12714342.894 10 0 60975 7200.00000 0 -9901398.061 -21292741.835 -9892010.573 10 0 60975 8100.00000 0 -10352152.599 -22246291.819 -6876899.377 10 0 60975 9000.00000 0 -10744929.340 -22806071.969 -3727789.367 10 0 60975 9900.00000 0 -11022238.507 -22975069.875 -506057.619 10 0 60975 10800.00000 0 -11129631.990 -22769604.519 2725531.732 10 0 60975 11700.00000 0 -11018226.745 -22218504.218 5904062.844 10 0 60975 12600.00000 0 -10646999.037 -21361774.895 8967703.343 10 0 60975 13500.00000 0 -9984751.552 -20248816.866 11856914.100 10 0 60975 14400.00000 0 -9011669.634 -18936267.227 14515609.213 10 0 60975 15300.00000 0 -7720400.857 -17485560.535 16892243.267 10 0 60975 16200.00000 0 -6116612.597 -15960311.752 18940804.896 10 0 60975 17100.00000 0 -4219004.568 -14423632.237 20621698.034 10 0 60975 18000.00000 0 -2058776.238 -12935491.644 21902494.854 10 0 60975 18900.00000 0 321428.212 -11550235.778 22758547.263 10 0 60975 19800.00000 0 2869053.205 -10314363.257 23173446.745 10 0 60975 20700.00000 0 5523579.636 -9264652.393 23139325.279 10 0 60975 21600.00000 0 8218806.838 -8426714.697 22656993.045 10 0 60975 22500.00000 0 10885374.857 -7814033.402 21735911.466 10 0 60975 23400.00000 0 13453423.652 -7427525.297 20394002.948 10 0 60975 24300.00000 0 15855280.513 -7255642.486 18657301.388 10 0 60975 25200.00000 0 18028065.990 -7275008.550 16559450.142 10 0 60975 26100.00000 0 19916111.893 -7451561.729 14141056.695 10 0 60975 27000.00000 0 21473092.569 -7742156.852 11448915.692 10 0 60975 27900.00000 0 22663782.221 -8096558.982 8535114.321 10 0 60975 28800.00000 0 23465366.107 -8459745.414 5456036.216 10 0 60975 29700.00000 0 23868251.568 -8774419.855 2271281.984 10 0 60975 30600.00000 0 23876345.290 -8983633.539 -957473.814 10 0 60975 31500.00000 0 23506784.983 -9033403.282 -4167667.964 10 0 60975 32400.00000 0 22789136.285 -8875216.257 -7297053.928 10 0 60975 33300.00000 0 21764087.788 -8468315.593 -10284904.306 10 0 60975 34200.00000 0 20481698.084 -7781669.653 -13073187.331 10 0 60975 35100.00000 0 18999267.502 -6795540.714 -15607694.597 10 0 60975 36000.00000 0 17378923.038 -5502585.210 -17839098.024 10 0 60975 36900.00000 0 15685017.197 -3908437.086 -19723915.180 10 0 60975 37800.00000 0 13981449.488 -2031747.275 -21225363.790 10 0 60975 38700.00000 0 12329022.749 96324.968 -22314088.277 10 0 60975 39600.00000 0 10782945.312 2433150.153 -22968743.508 10 0 60975 40500.00000 0 9390584.067 4926154.983 -23176423.612 10 0 60975 41400.00000 0 8189563.162 7514775.415 -22932926.672 10 0 60975 42300.00000 0 7206288.678 10132756.315 -22242849.178 10 0 60975 43200.00000 0 6454961.768 12710702.784 -21119507.462 10 0 60975 44100.00000 0 5937122.156 15178777.157 -19584686.721 10 0 60975 45000.00000 0 5641741.413 17469429.042 -17668221.758 10 0 60975 45900.00000 0 5545861.995 19520043.922 -15407417.032 10 0 60975 46800.00000 0 5615754.643 21275398.899 -12846317.048 10 0 60975 47700.00000 0 5808544.433 22689821.991 -10034841.429 10 0 60975 48600.00000 0 6074235.516 23728963.815 -7027802.033 10 0 60975 49500.00000 0 6358047.331 24371106.948 -3883822.126 10 0 60975 50400.00000 0 6602961.593 24607957.958 -664179.929 10 0 60975 51300.00000 0 6752370.299 24444889.350 2568399.484 10 0 60975 52200.00000 0 6752710.774 23900622.276 5750978.907 10 0 60975 53100.00000 0 6555974.544 23006364.827 8821644.785 10 0 60975 54000.00000 0 6121982.609 21804443.964 11720718.788 10 0 60975 54900.00000 0 5420330.027 20346490.555 14391920.762 10 0 60975 55800.00000 0 4431917.308 18691255.668 16783460.008 10 0 60975 56700.00000 0 3150004.006 16902151.377 18849033.832 10 0 60975 57600.00000 0 1580740.441 15044620.328 20548714.633 10 0 60975 58500.00000 0 -256844.339 13183444.770 21849709.390 10 0 60975 59400.00000 0 -2331397.442 11380107.456 22726978.278 10 0 60975 60300.00000 0 -4600316.408 9690313.866 23163702.056 10 0 60975 61200.00000 0 -7011297.996 8161777.798 23151590.851 10 0 60975 62100.00000 0 -9504297.358 6832360.852 22691029.859 10 0 60975 63000.00000 0 -12013816.858 5728641.278 21791060.415 10 0 60975 63900.00000 0 -14471430.490 4864969.725 20469197.648 10 0 60975 64800.00000 0 -16808440.478 4243049.250 18751088.673 10 0 60975 65700.00000 0 -18958557.351 3852055.388 16670017.861 10 0 60975 66600.00000 0 -20860493.777 3669289.988 14266268.329 10 0 60975 67500.00000 0 -22460365.906 3661340.594 11586351.178 10 0 60975 68400.00000 0 -23713803.680 3785696.472 8682116.345 10 0 60975 69300.00000 0 -24587683.176 3992753.474 5609761.127 10 0 60975 70200.00000 0 -25061409.388 4228123.836 2428754.394 10 0 60975 71100.00000 0 -25127696.053 4435154.193 -799303.776 10 0 60975 72000.00000 0 -24792809.702 4557546.153 -4011865.838 10 0 60975 72900.00000 0 -24076267.139 4541969.232 -7146641.672 10 0 60975 73800.00000 0 -23009998.154 4340555.886 -10142801.756 10 0 60975 74700.00000 0 -21637007.505 3913172.895 -12942155.484 10 0 60975 75600.00000 0 -20009591.189 3229372.355 -15490281.836 10 0 60975 76500.00000 0 -18187180.638 2269938.609 -17737590.312 10 0 60975 77400.00000 0 -16233904.340 1027964.068 -19640291.198 10 0 60975 78300.00000 0 -14215968.278 -490593.587 -21161255.917 10 0 60975 79200.00000 0 -12198964.435 -2266898.725 -22270750.202 10 0 60975 80100.00000 0 -10245219.875 -4269772.714 -22947025.140 10 0 60975 81000.00000 0 -8411297.423 -6456756.581 -23176753.836 10 0 60975 81900.00000 0 -6745752.781 -8775659.142 -22955304.349 10 0 60975 82800.00000 0 -5287242.419 -11166527.698 -22286842.602 10 0 60975 83700.00000 0 -4063061.902 -13563960.237 -21184262.349 10 0 60975 84600.00000 0 -3088176.272 -15899663.313 -19668942.611 10 0 60975 85500.00000 0 -2364783.341 -18105148.849 -17770336.538 10 0 60976 0.00000 0 -1882428.177 -20114456.629 -15525399.326 10 0 60976 900.00000 0 -1618663.248 -21866788.921 -12977864.795 10 0 60976 1800.00000 0 -1540226.107 -23308943.270 -10177387.901 10 0 60976 2700.00000 0 -1604682.819 -24397444.134 -7178566.361 10 0 60976 3600.00000 0 -1762466.696 -25100280.358 -4039864.244 10 0 60976 4500.00000 0 -1959223.923 -25398176.122 -822458.601 10 0 60976 5400.00000 0 -2138364.780 -25285341.769 2410966.780 10 0 60976 6300.00000 0 -2243710.400 -24769673.411 5597455.467 10 0 60976 7200.00000 0 -2222121.122 -23872393.915 8675014.778 10 0 60976 8100.00000 0 -2025993.628 -22627151.810 11583829.174 10 0 60976 9000.00000 0 -1615520.113 -21078617.623 14267426.147 10 0 60976 9900.00000 0 -960613.381 -19280638.373 16673771.509 10 0 60976 10800.00000 0 -42416.436 -17294029.233 18756272.876 10 0 60976 11700.00000 0 1145666.867 -15184096.097 20474672.551 10 0 60976 12600.00000 0 2597463.003 -13017993.472 21795813.513 10 0 60976 13500.00000 0 4294062.633 -10862028.150 22694265.110 10 0 60976 14400.00000 0 6204395.311 -8779020.619 23152797.993 10 0 60976 15300.00000 0 8286320.741 -6825833.005 23162700.728 10 0 60976 16200.00000 0 10488191.181 -5051164.795 22723933.521 10 0 60976 17100.00000 0 12750820.366 -3493706.007 21845117.325 10 0 60976 18000.00000 0 15009777.803 -2180722.455 20543359.427 10 0 60976 18900.00000 0 17197914.234 -1127129.776 18843919.329 10 0 60976 19800.00000 0 19248014.628 -335092.750 16779721.337 10 0 60976 20700.00000 0 21095469.870 205835.045 14390722.856 10 0 60976 21600.00000 0 22680857.453 518038.355 11723149.831 10 0 60976 22500.00000 0 23952325.032 634663.087 8828613.046 10 0 60976 23400.00000 0 24867678.431 597984.536 5763121.278 10 0 60976 24300.00000 0 25396087.651 457389.491 2586009.204 10 0 60976 25200.00000 0 25519339.778 267056.758 -641200.268 10 0 60976 26100.00000 0 25232586.141 83433.403 -3855978.107 10 0 60976 27000.00000 0 24544551.823 -37387.277 -6995993.524 10 0 60976 27900.00000 0 23477197.756 -42275.578 -10000317.756 10 0 60976 28800.00000 0 22064848.303 116447.284 -12810604.127 10 0 60976 29700.00000 0 20352819.587 478749.915 -15372221.574 10 0 60976 30600.00000 0 18395604.583 1074955.888 -17635319.521 10 0 60976 31500.00000 0 16254689.777 1924216.394 -19555803.072 10 0 60976 32400.00000 0 13996093.664 3033456.604 -21096199.206 10 0 60976 33300.00000 0 11687729.240 4396842.371 -22226396.573 10 0 60976 34200.00000 0 9396700.247 5995792.038 -22924243.828 10 0 60976 35100.00000 0 7186643.959 7799535.335 -23175994.116 10 0 60976 36000.00000 0 5115231.514 9766198.238 -22976586.194 10 0 60976 36900.00000 0 3231930.545 11844370.311 -22329755.768 10 0 60976 37800.00000 0 1576123.916 13975090.473 -21247973.939 10 0 60976 38700.00000 0 175663.583 16094169.098 -19752213.026 10 0 60976 39600.00000 0 -954079.686 18134749.653 -17871543.527 10 0 60976 40500.00000 0 -1810630.929 20030002.485 -15642569.490 10 0 60976 41400.00000 0 -2404272.986 21715837.297 -13108712.958 10 0 60976 42300.00000 0 -2757362.456 23133519.593 -10319361.534 10 0 60976 43200.00000 0 -2903129.676 24232080.175 -7328896.122 10 0 60976 44100.00000 0 -2884014.994 24970415.391 -4195618.621 10 0 60976 45000.00000 0 -2749613.577 25318988.976 -980601.718 10 0 60976 45900.00000 0 -2554317.811 25261063.372 2253515.414 10 0 60976 46800.00000 0 -2354759.275 24793408.749 5443760.491 10 0 60976 47700.00000 0 -2207160.644 23926460.331 8528065.036 10 0 60976 48600.00000 0 -2164711.392 22683918.412 11446479.506 10 0 60976 49500.00000 0 -2275079.727 21101809.144 14142342.054 10 0 60976 50400.00000 0 -2578166.772 19227047.069 16563377.768 10 0 60976 51300.00000 0 -3104198.242 17115561.143 18662707.069 10 0 60976 52200.00000 0 -3872233.957 14830063.961 20399744.351 10 0 60976 53100.00000 0 -4889157.514 12437558.347 21740970.433 10 0 60976 54000.00000 0 -6149187.951 10006685.663 22660565.316 10 0 60976 54900.00000 0 -7633933.235 7605026.054 23140890.602 10 0 60976 55800.00000 0 -9312982.824 5296462.093 23172813.905 10 0 60976 56700.00000 0 -11145014.294 3138713.969 22755870.537 10 0 60976 57600.00000 0 -13079367.986 1181146.687 21898260.624 10 0 60976 58500.00000 0 -15058024.496 -537061.765 20616682.596 10 0 60976 59400.00000 0 -17017903.533 -1988317.477 18936006.756 10 0 60976 60300.00000 0 -18893389.543 -3157517.000 16888795.208 10 0 60976 61200.00000 0 -20618980.256 -4042427.278 14514677.028 10 0 60976 62100.00000 0 -22131949.154 -4653524.856 11859589.968 10 0 60976 63000.00000 0 -23374912.145 -5013302.258 8974902.333 10 0 60976 63900.00000 0 -24298192.329 -5155071.194 5916430.856 10 0 60976 64800.00000 0 -24861884.744 -5121313.073 2743372.428 10 0 60976 65700.00000 0 -25037535.026 -4961646.000 -482830.796 10 0 60976 66600.00000 0 -24809361.467 -4730493.492 -3699671.780 10 0 60976 67500.00000 0 -24174968.669 -4484552.765 -6844782.399 10 0 60976 68400.00000 0 -23145521.795 -4280169.045 -9857137.786 10 0 60976 69300.00000 0 -21745372.757 -4170726.620 -12678238.095 10 0 60976 70200.00000 0 -20011152.427 -4204167.018 -15253244.846 10 0 60976 71100.00000 0 -17990365.243 -4420739.656 -17532049.664 10 0 60976 72000.00000 0 -15739543.452 -4851080.973 -19470254.337 10 0 60976 72900.00000 0 -13322036.766 -5514704.468 -21030042.773 10 0 60976 73800.00000 0 -10805528.589 -6418967.144 -22180927.356 10 0 60976 74700.00000 0 -8259381.733 -7558557.933 -22900354.544 10 0 60976 75600.00000 0 -5751923.801 -8915531.852 -23174157.168 10 0 60976 76500.00000 0 -3347785.307 -10459890.684 -22996843.773 10 0 60976 77400.00000 0 -1105401.609 -12150687.796 -22371718.441 10 0 60976 78300.00000 0 925216.863 -13937612.454 -21310827.791 10 0 60976 79200.00000 0 2704352.703 -15762988.376 -19834735.263 10 0 60976 80100.00000 0 4204009.610 -17564103.364 -17972126.264 10 0 60976 81000.00000 0 5408840.630 -19275772.355 -15759251.261 10 0 60976 81900.00000 0 6316537.917 -20833025.875 -13239217.341 10 0 60976 82800.00000 0 6937668.262 -22173810.089 -10461142.090 10 0 60976 83700.00000 0 7294962.385 -23241583.774 -7479186.737 10 0 60976 84600.00000 0 7422089.462 -23987701.731 -4351488.197 10 0 60976 85500.00000 0 7361970.454 -24373483.149 -1139012.057 10 0 60977 0.00000 0 7164703.688 -24371876.909 2095649.436 10 0 60977 900.00000 0 6885192.571 -23968653.185 5289511.170 10 0 60977 1800.00000 0 6580578.311 -23163071.194 8380430.842 10 0 60977 2700.00000 0 6307587.937 -21967995.494 11308326.951 10 0 60977 3600.00000 0 6119911.651 -20409456.736 14016350.147 10 0 60977 4500.00000 0 6065721.422 -18525676.572 16451986.386 10 0 60977 5400.00000 0 6185436.224 -16365598.866 18568070.224 10 0 60977 6300.00000 0 6509828.189 -13986989.885 20323689.191 10 0 60977 7200.00000 0 7058549.063 -11454187.789 21684962.700 10 0 60977 8100.00000 0 7839138.194 -8835595.747 22625681.842 10 0 60977 9000.00000 0 8846552.838 -6201022.999 23127799.300 10 0 60977 9900.00000 0 10063239.656 -3618983.751 23181761.572 10 0 60977 10800.00000 0 11459743.779 -1154064.880 22786678.645 10 0 60977 11700.00000 0 12995829.699 1135530.067 21950329.133 10 0 60977 12600.00000 0 14622067.256 3200160.707 20689001.710 10 0 60977 13500.00000 0 16281817.031 5000565.290 19027176.386 10 0 60977 14400.00000 0 17913533.204 6509238.684 16997051.791 10 0 60977 15300.00000 0 19453288.853 7711317.654 14637927.214 10 0 60977 16200.00000 0 20837419.583 8604938.399 11995450.582 10 0 60977 17100.00000 0 22005176.287 9201052.817 9120745.884 10 0 60977 18000.00000 0 22901277.214 9522712.105 6069435.787 10 0 60977 18900.00000 0 23478253.344 9603848.214 2900577.170 10 0 60977 19800.00000 0 23698489.221 9487604.378 -324470.937 10 0 60977 20700.00000 0 23535873.623 9224284.677 -3543225.984 10 0 60977 21600.00000 0 22976990.263 8869008.616 -6693285.049 10 0 60977 22500.00000 0 22021797.550 8479169.122 -9713529.657 10 0 60977 23400.00000 0 20683767.434 8111800.933 -12545309.197 10 0 60977 24300.00000 0 18989475.824 7820970.329 -15133580.013 10 0 60977 25200.00000 0 16977659.802 7655296.642 -17427977.987 10 0 60977 26100.00000 0 14697779.235 7655710.775 -19383803.458 10 0 60977 27000.00000 0 12208141.116 7853546.279 -20962898.940 10 0 60977 27900.00000 0 9573663.402 8269044.868 -22134402.072 10 0 60977 28800.00000 0 6863370.465 8910341.038 -22875358.456 10 0 60977 29700.00000 0 4147723.670 9772970.402 -23171181.750 10 0 60977 30600.00000 0 1495897.819 10839924.407 -23015951.177 10 0 60977 31500.00000 0 -1026883.201 12082251.011 -22412539.769 10 0 60977 32400.00000 0 -3361840.455 13460177.705 -21372569.848 10 0 60977 33300.00000 0 -5458859.446 14924711.003 -19916195.718 10 0 60977 34200.00000 0 -7278342.078 16419645.955 -18071716.969 10 0 60977 35100.00000 0 -8792613.547 17883901.479 -15875029.300 10 0 60977 36000.00000 0 -9986825.295 19254083.058 -13368923.203 10 0 60977 36900.00000 0 -10859316.570 20467164.158 -10602244.225 10 0 60977 37800.00000 0 -11421420.185 21463172.365 -7628931.559 10 0 60977 38700.00000 0 -11696721.954 22187765.710 -4506954.505 10 0 60977 39600.00000 0 -11719806.687 22594589.219 -1297168.722 10 0 60977 40500.00000 0 -11534545.718 22647311.109 1937884.016 10 0 60977 41400.00000 0 -11192000.581 22321251.885 5135207.649 10 0 60977 42300.00000 0 -10748033.763 21604537.190 8232589.700 10 0 60977 43200.00000 0 -10260729.725 20498725.867 11169819.758 10 0 60977 44100.00000 0 -9787737.102 19018887.254 13889863.935 10 0 60977 45000.00000 0 -9383645.743 17193125.264 16339971.897 10 0 60977 45900.00000 0 -9097510.179 15061570.274 18472695.007 10 0 60977 46800.00000 0 -8970624.170 12674882.009 20246796.389 10 0 60977 47700.00000 0 -9034639.752 10092326.933 21628036.237 10 0 60977 48600.00000 0 -9310109.131 7379510.841 22589818.615 10 0 60977 49500.00000 0 -9805509.639 4605861.129 23113688.801 10 0 60977 50400.00000 0 -10516791.510 1841962.950 23189673.269 10 0 60977 51300.00000 0 -11427466.392 -843141.171 22816457.290 10 0 60977 52200.00000 0 -12509232.144 -3384577.810 22001398.062 10 0 60977 53100.00000 0 -13723107.373 -5724088.159 20760374.034 10 0 60977 54000.00000 0 -15021028.313 -7812193.364 19117473.885 10 0 60977 54900.00000 0 -16347841.826 -9609992.099 17104531.164 10 0 60977 55800.00000 0 -17643611.966 -11090517.827 14760513.247 10 0 60977 56700.00000 0 -18846144.761 -12239601.241 12130775.645 10 0 60977 57600.00000 0 -19893626.716 -13056203.498 9266195.057 10 0 60977 58500.00000 0 -20727267.622 -13552207.453 6222196.819 10 0 60977 59400.00000 0 -21293837.801 -13751676.310 3057694.350 10 0 60977 60300.00000 0 -21547993.889 -13689611.002 -166040.006 10 0 60977 61200.00000 0 -21454295.589 -13410258.372 -3386551.782 10 0 60977 62100.00000 0 -20988828.318 -12965040.952 -6541406.804 10 0 60977 63000.00000 0 -20140362.633 -12410195.040 -9569396.467 10 0 60977 63900.00000 0 -18911000.374 -11804216.171 -12411722.712 10 0 60977 64800.00000 0 -17316278.606 -11205219.395 -15013139.817 10 0 60977 65700.00000 0 -15384724.988 -10668325.637 -17323030.741 10 0 60977 66600.00000 0 -13156881.008 -10243184.626 -19296396.805 10 0 60977 67500.00000 0 -10683831.867 -9971739.457 -20894741.092 10 0 60977 68400.00000 0 -8025302.436 -9886327.943 -22086827.888 10 0 60977 69300.00000 0 -5247397.136 -10008202.024 -22849302.720 10 0 60977 70200.00000 0 -2420076.646 -10346529.054 -23167160.211 10 0 60977 71100.00000 0 385524.327 -10897918.632 -23034049.800 10 0 60977 72000.00000 0 3099826.976 -11646496.498 -22452412.432 10 0 60977 72900.00000 0 5657472.441 -12564523.881 -21433444.613 10 0 60977 73800.00000 0 7999808.847 -13613537.431 -19996889.579 10 0 60977 74700.00000 0 10077097.283 -14745962.610 -18170658.820 10 0 60977 75600.00000 0 11850344.300 -15907132.935 -15990290.682 10 0 60977 76500.00000 0 13292684.160 -17037629.880 -13498256.238 10 0 60977 77400.00000 0 14390252.965 -18075844.127 -10743125.954 10 0 60977 78300.00000 0 15142518.539 -18960649.104 -7778613.788 10 0 60977 79200.00000 0 15562053.089 -19634072.600 -4662518.124 10 0 60977 80100.00000 0 15673759.622 -20043852.207 -1455581.375 10 0 60977 81000.00000 0 15513586.576 -20145765.230 1779708.127 10 0 60977 81900.00000 0 15126787.008 -19905633.502 4980347.071 10 0 60977 82800.00000 0 14565798.192 -19300917.637 8084055.376 10 0 60977 83700.00000 0 13887833.444 -18321833.059 11030496.283 10 0 60977 84600.00000 0 13152289.939 -16971940.846 13762453.558 10 0 60977 85500.00000 0 12418083.602 -15268188.978 16226942.381 10 0 60978 0.00000 0 11741024.669 -13240403.141 18376232.142 10 0 60978 900.00000 0 11171344.625 -10930248.144 20168762.932 10 0 60978 1800.00000 0 10751479.384 -8389706.919 21569936.124 10 0 60978 2700.00000 0 10514199.989 -5679137.535 22552768.970 10 0 60978 3600.00000 0 10481169.130 -2864991.927 23098399.215 10 0 60978 4500.00000 0 10661982.279 -17289.902 23196432.854 10 0 60978 5400.00000 0 11053732.297 2793047.400 22845129.699 10 0 60978 6300.00000 0 11641114.491 5496895.287 22051424.525 10 0 60978 7200.00000 0 12397066.802 8029544.433 20830784.334 10 0 60978 8100.00000 0 13283917.819 10333134.374 19206905.052 10 0 60978 9000.00000 0 14254994.561 12358802.874 17211253.561 10 0 60978 9900.00000 0 15256623.109 14068464.004 14882463.580 10 0 60978 10800.00000 0 16230439.062 15436143.026 12265596.308 10 0 60978 11700.00000 0 17115911.976 16448814.129 9411279.118 10 0 60978 12600.00000 0 17852978.914 17106707.326 6374737.837 10 0 60978 13500.00000 0 18384677.518 17423072.463 3214740.116 10 0 60978 14400.00000 0 18659668.648 17423410.598 -7530.783 10 0 60978 15300.00000 0 18634542.807 17144204.933 -3229650.908 10 0 60978 16200.00000 0 18275813.193 16631204.294 -6389157.259 10 0 60978 17100.00000 0 17561510.798 15937330.814 -9424753.432 10 0 60978 18000.00000 0 16482313.242 15120299.344 -12277496.113 10 0 60978 18900.00000 0 15042158.196 14240048.350 -14891939.525 10 0 60978 19800.00000 0 13258313.557 13356090.214 -17217215.521 10 0 60978 20700.00000 0 11160899.143 12524892.507 -19208028.028 10 0 60978 21600.00000 0 8791877.550 11797400.785 -20825542.151 10 0 60978 22500.00000 0 6203554.079 11216807.802 -22038150.121 10 0 60978 23400.00000 0 3456646.362 10816663.893 -22822098.542 10 0 60978 24300.00000 0 618002.449 10619409.150 -23161963.986 10 0 60978 25200.00000 0 -2241938.821 10635390.411 -23050966.861 10 0 60978 26100.00000 0 -5051840.194 10862405.700 -22491116.492 10 0 60978 27000.00000 0 -7742199.412 11285796.531 -21493183.669 10 0 60978 27900.00000 0 -10248009.830 11879085.210 -20076500.241 10 0 60978 28800.00000 0 -12511237.033 12605131.034 -18268588.827 10 0 60978 29700.00000 0 -14483007.746 13417756.986 -16104629.218 10 0 60978 30600.00000 0 -16125419.200 14263778.208 -13626771.469 10 0 60978 31500.00000 0 -17412892.981 15085346.056 -10883309.034 10 0 60978 32400.00000 0 -18333016.756 15822507.714 -7927728.452 10 0 60978 33300.00000 0 -18886839.042 16415871.868 -4817654.821 10 0 60978 34200.00000 0 -19088605.607 16809266.167 -1613714.797 10 0 60978 35100.00000 0 -18964950.108 16952272.543 1621659.334 10 0 60978 36000.00000 0 -18553574.952 16802531.727 4825459.674 10 0 60978 36900.00000 0 -17901480.202 16327718.403 7935341.266 10 0 60978 37800.00000 0 -17062817.513 15507102.838 10890843.743 10 0 60978 38700.00000 0 -16096461.813 14332632.756 13634571.270 10 0 60978 39600.00000 0 -15063404.992 12809490.010 16113307.234 10 0 60978 40500.00000 0 -14024082.808 10956099.058 18279042.003 10 0 60978 41400.00000 0 -13035748.294 8803587.491 20089894.304 10 0 60978 42300.00000 0 -12150002.228 6394721.896 21510909.325 10 0 60978 43200.00000 0 -11410583.845 3782363.986 22514719.459 10 0 60978 44100.00000 0 -10851513.387 1027511.595 23082056.540 10 0 60978 45000.00000 0 -10495662.860 -1802994.115 23202107.329 10 0 60978 45900.00000 0 -10353813.188 -4639000.640 22872707.010 10 0 60978 46800.00000 0 -10424235.560 -7409711.367 22100368.308 10 0 60978 47700.00000 0 -10692813.050 -10046378.993 20900146.671 10 0 60978 48600.00000 0 -11133696.342 -12484915.294 19295344.669 10 0 60978 49500.00000 0 -11710465.490 -14668311.103 17317061.422 10 0 60978 50400.00000 0 -12377748.928 -16548768.073 15003595.416 10 0 60978 51300.00000 0 -13083232.198 -18089455.621 12399711.529 10 0 60978 52200.00000 0 -13769972.797 -19265821.588 9555785.419 10 0 60978 53100.00000 0 -14378924.808 -20066403.287 6526840.700 10 0 60978 54000.00000 0 -14851568.121 -20493105.923 3371496.302 10 0 60978 54900.00000 0 -15132532.399 -20560937.152 150843.272 10 0 60978 55800.00000 0 -15172105.813 -20297208.907 -3072728.224 10 0 60978 56700.00000 0 -14928522.930 -19740239.618 -6236729.723 10 0 60978 57600.00000 0 -14369934.946 -18937610.788 -9279780.424 10 0 60978 58500.00000 0 -13475978.281 -17944050.533 -12142795.155 10 0 60978 59400.00000 0 -12238874.022 -16819032.427 -14770131.396 10 0 60978 60300.00000 0 -10664009.996 -15624190.128 -17110673.036 10 0 60978 61200.00000 0 -8769978.763 -14420656.236 -19118829.479 10 0 60978 62100.00000 0 -6588067.409 -13266437.232 -20755430.338 10 0 60978 63000.00000 0 -4161218.018 -12213935.105 -21988497.806 10 0 60978 63900.00000 0 -1542499.891 -11307720.384 -22793881.022 10 0 60978 64800.00000 0 1206844.766 -10582650.905 -23155739.384 10 0 60978 65700.00000 0 4019701.905 -10062416.267 -23066864.553 10 0 60978 66600.00000 0 6825638.730 -9758570.169 -22528833.966 10 0 60978 67500.00000 0 9553603.186 -9670092.245 -21551991.917 10 0 60978 68400.00000 0 12134657.636 -9783498.661 -20155257.619 10 0 60978 69300.00000 0 14504632.587 -10073497.368 -18365763.150 10 0 60978 70200.00000 0 16606589.348 -10504160.650 -16218327.669 10 0 60978 71100.00000 0 18392988.206 -11030565.309 -13754777.729 10 0 60978 72000.00000 0 19827470.927 -11600830.669 -11023126.920 10 0 60978 72900.00000 0 20886182.628 -12158467.202 -8076631.157 10 0 60978 73800.00000 0 21558577.653 -12644935.134 -4972738.761 10 0 60978 74700.00000 0 21847676.131 -13002303.110 -1771956.951 10 0 60978 75600.00000 0 21769761.461 -13175892.687 1463341.779 10 0 60978 76500.00000 0 21353532.996 -13116795.098 4670148.621 10 0 60978 77400.00000 0 20638751.528 -12784152.350 7786057.212 10 0 60978 78300.00000 0 19674436.796 -12147105.175 10750486.730 10 0 60978 79200.00000 0 18516695.127 -11186324.870 13505864.476 10 0 60978 80100.00000 0 17226270.714 -9895064.232 15998744.322 10 0 60978 81000.00000 0 15865925.170 -8279683.479 18180839.234 10 0 60978 81900.00000 0 14497756.592 -6359629.484 20009948.292 10 0 60978 82800.00000 0 13180571.106 -4166869.732 21450761.169 10 0 60978 83700.00000 0 11967416.873 -1744805.163 22475525.868 10 0 60978 84600.00000 0 10903382.916 853292.443 23064568.384 10 0 60978 85500.00000 0 10023753.484 3566253.485 23206655.963 99